This is the latest recevied weather packets stored in our database for station/object XW7RMR. If no packets are shown the sender has not sent any weather packets the latest 10 day(s).
| Time | Temp. | Humidity | Pressure | Rain* | Wind** | Luminosity | Snow |
|---|---|---|---|---|---|---|---|
| 1777148270 | 19.44° C | 26% | 1009 hPa | 0 mm | - | 818 W/m² | - |
| 1777147967 | 19.44° C | 22% | 1009.1 hPa | 0 mm | - | 818 W/m² | - |
| 1777147663 | 18.89° C | 26% | 1009.2 hPa | 0 mm | - | 818 W/m² | - |
| 1777147357 | 18.89° C | 22% | 1009.3 hPa | 0 mm | - | 818 W/m² | - |
| 1777147053 | 18.33° C | 23% | 1009.1 hPa | 0 mm | - | 815 W/m² | - |
| 1777146750 | 18.33° C | 22% | 1009.2 hPa | 0 mm | - | 814 W/m² | - |
| 1777146446 | 18.33° C | 26% | 1009.1 hPa | 0 mm | - | 811 W/m² | - |
| 1777146143 | 18.89° C | 24% | 1009.4 hPa | 0 mm | - | 809 W/m² | - |
| 1777145843 | 18.89° C | 23% | 1009.5 hPa | 0 mm | - | 806 W/m² | - |
| 1777145540 | 17.78° C | 25% | 1009.5 hPa | 0 mm | - | 801 W/m² | - |
| 1777145234 | 17.78° C | 25% | 1009.8 hPa | 0 mm | - | 798 W/m² | - |
| 1777144930 | 18.33° C | 27% | 1009.6 hPa | 0 mm | - | 792 W/m² | - |
| 1777144629 | 18.33° C | 26% | 1009.7 hPa | 0 mm | - | 787 W/m² | - |
| 1777144325 | 17.78° C | 26% | 1009.9 hPa | 0 mm | - | 780 W/m² | - |
| 1777144021 | 17.78° C | 27% | 1009.9 hPa | 0 mm | - | 773 W/m² | - |
| 1777143717 | 17.78° C | 27% | 1009.8 hPa | 0 mm | - | 765 W/m² | - |
| 1777143414 | 17.78° C | 26% | 1009.9 hPa | 0 mm | - | 762 W/m² | - |
| 1777143110 | 17.78° C | 31% | 1009.9 hPa | 0 mm | - | 755 W/m² | - |
| 1777142805 | 17.22° C | 29% | 1009.9 hPa | 0 mm | - | 747 W/m² | - |
| 1777142503 | 17.78° C | 29% | 1010 hPa | 0 mm | - | 740 W/m² | - |
| 1777142201 | 17.22° C | 29% | 1010.1 hPa | 0 mm | - | 732 W/m² | - |
| 1777141898 | 17.22° C | 32% | 1010.3 hPa | 0 mm | - | 723 W/m² | - |
| 1777141596 | 17.22° C | 33% | 1010.2 hPa | 0 mm | - | 713 W/m² | - |
| 1777141295 | 16.67° C | 35% | 1010 hPa | 0 mm | - | 705 W/m² | - |
| 1777140991 | 16.67° C | 30% | 1010.1 hPa | 0 mm | - | 696 W/m² | - |
* Rain latest hour (hover to see other rain measurements)
** Current wind speed in m/s (hover to see current wind gust speed)